Location: Observatory
(52.1446°N, 0.4624°W)
Time: 07:05:35
(UTC+01:00)

ISS - Pass Details

Date: 22 May 2019
Orbit: 407 x 418 km, 51.6° (Epoch: 20 June)

Event Time Altitude Azimuth Distance (km) Brightness Sun altitude
Rises 21:34:02 0° 237° (WSW) 2,346 0.2 -4.9°
Reaches altitude 10° 21:36:10 10° 231° (SW) 1,488 -0.8 -5.1°
Maximum altitude 21:39:22 45° 158° (SSE) 580 -3.4 -5.5°
Drops below altitude 10° 21:42:36 10° 84° (E) 1,500 -1.3 -5.8°
Sets 21:44:45 0° 78° (ENE) 2,368 -0.3 -6.0°
